{"data":{"norad_id":63511,"epoch":"2026-05-25T03:22:47.508096Z","epoch_age_seconds":73348,"freshness":"FRESH","line1":"1 63511U 25071U   26145.14082764  .00013813  00000+0  45572-3 0  9992","line2":"2 63511  53.1590 144.8631 0001269 114.2255 245.8879 15.31722958 64103","mean_motion":15.31722958,"eccentricity":0.0001269,"inclination_deg":53.159,"raan_deg":144.8631,"arg_perigee_deg":114.2255,"mean_anomaly_deg":245.8879,"bstar":0.00045572,"rev_number":6410,"period_min":94.011778858511,"perigee_km":469.80244567088,"apogee_km":471.54067328328,"semimajor_km":6848.8085594771,"source":"CELESTRAK","updated_at":"2026-05-25T13:38:20.037466Z"}}